Flag for Poland Weather past 2 weeks in Sosnowiec, Poland

Now
59 °F

Clear.


Feels Like: 59 °F
Forecast: 57 / 72 °F
Wind: 2 mph from North

Location: Katowice Airport

Current Time: Aug 30, 2014 at 7:16:07 AM

Latest Report: Aug 30, 2014 at 6:30 AM


Visibility: 10 mi

Pressure: 30.04 "Hg

Humidity: 88%

Dew point: 55 °F

Location of SosnowiecLocation

Historic Weather in Sosnowiec — Graph

°F

Sosnowiec temperature yesterday

Maximum temperature yesterday: 72 °F (at 2:30 PM)
Minimum temperature yesterday: 45 °F (at 1:30 AM)
Average temperature yesterday: 60 °F

Past Weeks' High & Low Weather Summary

 TemperatureHumidityPressure
High73 °F (Aug 18, 1:00 PM)100% (Aug 20, 12:30 AM)30.09 "Hg (Aug 20, 12:30 AM)
Low43 °F (Aug 22, 4:30 AM)38% (Aug 29, 4:30 PM)29.74 "Hg (Aug 26, 12:00 PM)
Average58 °F77%29.96 "Hg
* Reported Aug 15 6:30 AM — Aug 30 6:00 AM, Sosnowiec, Weather by CustomWeather, © 2014

Note: Actual official high and low records may vary slightly from our data, if they occured in-between our weather recording intervals... More about our weather records

Advertising

Sosnowiec weather history for previous 24 hours

 ConditionsComfort  
Time TempWeatherWind HumidityBarometerVisibility
6:00 AM
Aug 30
59 °FPassing clouds.2 mph88%30.04 "HgN/A
5:30 AM59 °FPassing clouds.5 mph88%30.04 "HgN/A
5:00 AM61 °FLight rain. Passing clouds.5 mph83%30.04 "HgN/A
4:30 AM61 °FLight rain. Passing clouds.3 mph83%30.04 "HgN/A
4:00 AM61 °FLight rain. Passing clouds.5 mph83%30.04 "HgN/A
3:30 AM61 °FLight rain. Passing clouds.6 mph88%30.04 "HgN/A
3:00 AM61 °FLight rain. Clear.7 mph83%30.04 "HgN/A
2:30 AM63 °FLight rain. Passing clouds.7 mph73%30.04 "HgN/A
2:00 AM63 °FClear.5 mph73%30.04 "Hg10 mi
1:30 AM63 °FClear.3 mph73%30.04 "Hg10 mi
1:00 AM63 °FClear.2 mph73%30.04 "Hg10 mi
12:30 AM63 °FClear.3 mph73%30.04 "Hg10 mi
12:00 AM63 °FClear.3 mph68%30.04 "Hg10 mi
11:30 PM
Aug 29
63 °FPassing clouds.3 mph73%30.04 "HgN/A
11:00 PM64 °FPassing clouds.5 mph64%30.04 "HgN/A
9:00 PM66 °FPassing clouds.5 mph60%30.04 "HgN/A
8:30 PM66 °FPassing clouds.3 mph60%30.04 "HgN/A
8:00 PM66 °FPassing clouds.3 mph60%30.04 "HgN/A
7:30 PM66 °FPassing clouds.3 mph60%30.04 "HgN/A
7:00 PM68 °FSunny.3 mph53%30.04 "Hg10 mi
6:30 PM70 °FPassing clouds.5 mph50%30.04 "HgN/A
6:00 PM70 °FSunny.8 mph46%30.04 "Hg10 mi
5:30 PM72 °FPassing clouds.9 mph44%30.04 "HgN/A
5:00 PM72 °FSunny.9 mph41%30.04 "Hg10 mi
4:30 PM72 °FSunny.10 mph38%30.04 "Hg10 mi
4:00 PM72 °FPassing clouds.10 mph44%30.04 "HgN/A
3:30 PM72 °FPassing clouds.8 mph44%30.07 "HgN/A
3:00 PM72 °FSunny.10 mph41%30.07 "Hg10 mi
2:30 PM72 °FPassing clouds.8 mph41%30.07 "HgN/A
2:00 PM70 °FPassing clouds.8 mph43%30.07 "HgN/A
1:30 PM70 °FPassing clouds.9 mph43%30.07 "HgN/A
1:00 PM70 °FPassing clouds.10 mph43%30.07 "HgN/A
12:30 PM70 °FPassing clouds.12 mph40%30.07 "HgN/A
12:00 PM68 °FSunny.12 mph49%30.09 "Hg10 mi
11:30 AM66 °FPassing clouds.12 mph52%30.09 "HgN/A
11:00 AM66 °FPassing clouds.12 mph56%30.09 "HgN/A
10:30 AM64 °FPassing clouds.10 mph56%30.09 "HgN/A
10:00 AM64 °FPassing clouds.8 mph56%30.09 "HgN/A
9:30 AM63 °FPassing clouds.8 mph59%30.09 "HgN/A
9:00 AM61 °FSunny.8 mph63%30.09 "Hg10 mi
8:30 AM59 °FPassing clouds.6 mph68%30.09 "HgN/A
8:00 AM57 °FPassing clouds.3 mph72%30.09 "HgN/A
7:30 AM55 °FSunny.3 mph77%30.09 "Hg10 mi
7:00 AM50 °FClear.2 mph88%30.09 "Hg5 mi
Weather by CustomWeather, © 2014

See weather overviewHow to use our weather pages